FW9721 Weather Reports


time (UTC)temp
F
wind
direction
speed
knots
gust
knots
rain 1hr
in
rain 24hr
in
rain mn
in
humidity
%
barometer
mb
20260509034548 80 79 7.8 11.3 0.00 0.00 0.00 90 1007.7
20260509033039 80 95 7.0 12.2 0.00 0.00 0.00 90 1007.7
20260509031549 81 82 4.3 10.4 0.00 0.00 0.00 90 1007.9
20260509030050 81 116 5.2 8.7 0.00 0.00 0.00 90 1008.0
20260509024545 81 132 3.5 7.0 0.00 0.00 0.00 89 1008.3
20260509023041 81 113 5.2 8.7 0.00 0.00 0.00 89 1008.3
20260509021548 81 136 7.8 10.4 0.00 0.00 0.00 89 1008.6
20260509020047 81 141 8.7 10.4 0.00 0.00 0.00 89 1008.6
20260509014540 81 145 9.6 14.8 0.00 0.00 0.00 89 1008.3
20260509013100 81 146 9.6 13.9 0.00 0.00 0.00 89 1008.0
20260509011554 81 134 5.2 12.2 0.00 0.00 0.00 88 1007.7
20260509010056 81 137 7.0 15.6 0.00 0.00 0.00 88 1007.2
20260509004610 81 127 11.3 17.4 0.00 0.00 0.00 88 1007.6
20260509003051 81 108 10.4 14.8 0.00 0.00 0.00 88 1007.2
20260509001549 81 132 11.3 17.4 0.00 0.00 0.00 87 1006.5
20260509000047 81 134 8.7 13.9 0.00 0.00 0.00 87 1006.1
20260508234546 81 143 7.8 18.2 0.00 0.00 0.00 87 1005.9
20260508233059 82 133 7.0 15.6 0.00 0.00 0.00 86 1005.9
20260508231549 82 115 7.0 15.6 0.00 0.00 0.00 86 1005.9
20260508230056 82 69 7.0 18.2 0.00 0.00 0.00 85 1005.8
20260508224547 83 124 5.2 13.9 0.00 0.00 0.00 84 1005.9
20260508223046 83 137 7.0 14.8 0.00 0.00 0.00 84 1005.8
20260508221542 83 92 7.8 15.6 0.00 0.00 0.00 83 1005.7
20260508220046 83 114 8.7 15.6 0.00 0.00 0.00 83 1005.8
20260508214549 83 106 5.2 16.5 0.00 0.00 0.00 83 1005.9
20260508213045 83 136 5.2 18.2 0.00 0.00 0.00 83 1006.2
20260508211544 83 113 12.2 16.5 0.00 0.00 0.00 81 1006.5
20260508210053 83 132 13.9 17.4 0.00 0.00 0.00 81 1006.8
20260508204552 83 131 10.4 18.2 0.00 0.00 0.00 81 1007.1
20260508203048 83 134 13.0 15.6 0.00 0.00 0.00 81 1007.3
20260508201546 83 142 11.3 18.2 0.00 0.00 0.00 81 1007.4
20260508200049 84 127 12.2 14.8 0.00 0.00 0.00 80 1007.8
20260508194546 83 134 8.7 13.9 0.00 0.00 0.00 80 1008.2
20260508193053 84 139 7.0 14.8 0.00 0.00 0.00 80 1008.5
20260508191546 83 99 8.7 12.2 0.00 0.00 0.00 80 1008.8
20260508190055 84 133 7.8 13.9 0.00 0.00 0.00 80 1009.1
20260508184600 84 98 3.5 13.0 0.00 0.00 0.00 80 1009.1
20260508183052 83 99 5.2 13.0 0.00 0.00 0.00 80 1009.4
20260508181600 83 119 7.8 13.0 0.00 0.00 0.00 82 1009.9
20260508180050 83 113 5.2 10.4 0.00 0.00 0.00 83 1010.2
20260508174546 83 97 8.7 13.9 0.00 0.00 0.00 82 1010.4
20260508173050 83 97 8.7 14.8 0.00 0.00 0.00 81 1010.6
20260508171545 83 98 7.8 12.2 0.00 0.00 0.00 81 1010.8
20260508170043 83 101 7.0 11.3 0.00 0.00 0.00 81 1010.9
20260508164559 82 105 6.1 11.3 0.00 0.00 0.00 84 1011.1
20260508163038 82 77 7.8 12.2 0.00 0.00 0.00 85 1011.3
20260508161550 82 93 8.7 11.3 0.00 0.00 0.00 85 1011.3
20260508160038 81 95 7.8 13.0 0.00 0.00 0.00 85 1011.4
20260508154542 82 82 6.1 10.4 0.00 0.00 0.00 86 1011.5
20260508153048 81 96 7.0 10.4 0.00 0.00 0.00 86 1011.8
20260508151539 81 77 5.2 9.6 0.00 0.00 0.00 87 1011.8
20260508150058 81 80 8.7 11.3 0.00 0.00 0.00 87 1011.8
20260508144603 81 85 7.8 11.3 0.00 0.00 0.00 88 1011.9
20260508143057 80 78 10.4 12.2 0.00 0.00 0.00 88 1011.8
20260508141545 80 35 8.7 10.4 0.00 0.00 0.00 89 1011.9
20260508140046 80 18 5.2 10.4 0.00 0.00 0.00 90 1012.0
20260508134553 80 33 8.7 12.2 0.00 0.00 0.00 91 1011.9
20260508133109 80 36 8.7 13.0 0.00 0.00 0.00 91 1011.8
20260508131544 79 37 9.6 13.0 0.00 0.00 0.00 91 1011.9
20260508130039 79 32 6.1 9.6 0.00 0.00 0.00 92 1011.9
20260508124549 79 89 4.3 7.8 0.00 0.00 0.00 92 1011.8
20260508123054 79 47 2.6 7.0 0.00 0.00 0.00 92 1011.8
20260508121546 79 40 4.3 7.0 0.00 0.00 0.00 92 1011.7
20260508120052 79 347 5.2 8.7 0.00 0.00 0.00 92 1011.6
20260508114539 79 354 6.1 8.7 0.00 0.00 0.00 92 1011.4
20260508113107 79 31 3.5 6.1 0.00 0.00 0.00 92 1011.5
20260508111544 79 44 3.5 6.1 0.00 0.00 0.00 92 1011.4
20260508110054 79 20 6.1 9.6 0.00 0.00 0.00 92 1011.3
20260508104541 79 40 7.0 9.6 0.00 0.00 0.00 92 1011.1
20260508103044 79 79 4.3 7.8 0.00 0.00 0.00 93 1011.1
20260508101538 79 46 7.8 9.6 0.00 0.00 0.00 93 1011.2
20260508100039 79 78 9.6 13.9 0.00 0.00 0.00 93 1011.0
20260508094545 79 81 12.2 16.5 0.00 0.00 0.00 93 1011.1
20260508093043 79 82 12.2 15.6 0.00 0.00 0.00 93 1010.8
20260508091557 79 77 12.2 16.5 0.00 0.00 0.00 93 1011.0
20260508090059 79 72 13.0 15.6 0.00 0.00 0.00 93 1010.8
20260508084545 79 72 13.0 15.6 0.00 0.00 0.00 93 1010.7
20260508083046 79 77 8.7 15.6 0.00 0.00 0.00 93 1010.6
20260508081543 79 84 10.4 13.9 0.00 0.00 0.00 93 1010.3
20260508080050 79 60 10.4 15.6 0.00 0.00 0.00 93 1010.5
20260508074543 79 82 11.3 14.8 0.00 0.00 0.00 93 1010.4
20260508073056 80 59 11.3 13.0 0.00 0.00 0.00 93 1010.5
20260508071555 80 85 10.4 13.9 0.00 0.00 0.00 93 1010.4
20260508070046 80 77 8.7 10.4 0.00 0.00 0.00 93 1010.8
20260508064543 80 39 7.0 11.3 0.00 0.00 0.00 93 1011.0
20260508063049 80 75 7.8 11.3 0.00 0.00 0.00 93 1011.1
20260508061551 80 99 7.0 9.6 0.00 0.00 0.00 93 1010.9
20260508060048 80 99 7.0 10.4 0.00 0.00 0.00 93 1011.0
20260508054550 80 98 6.1 11.3 0.00 0.00 0.00 93 1010.7
20260508053113 80 113 7.0 8.7 0.00 0.00 0.00 93 1010.7
20260508051543 80 108 7.8 10.4 0.00 0.00 0.00 92 1011.0
20260508050051 80 103 7.0 9.6 0.00 0.00 0.00 93 1010.9
20260508044546 80 103 7.0 11.3 0.00 0.00 0.00 93 1011.0
20260508043046 80 89 7.8 12.2 0.00 0.00 0.00 93 1010.9
20260508041609 80 110 7.8 12.2 0.00 0.00 0.00 93 1010.8
20260508040107 80 106 6.1 10.4 0.00 0.00 0.00 93 1010.9